Pierre, SD

9:46 PM CDT on August 17, 2019 (GMT -0500)
Pierre Regional

Weather History for KPIR - July, 2019

Change the Weather History Date:

Sunday, July 14, 2019

  Actual Average Record
Temperature  
Mean Temperature 79 °F 76 °F  
Max Temperature 90 °F 89 °F 104 °F (1988)
Min Temperature 67 °F 62 °F 45 °F (1967)
Degree Days  
Heating Degree Days 0    
Month to date heating degree days 0  
Since 1 June heating degree days 42  
Since 1 July heating degree days 0  
Cooling Degree Days 14    
Month to date cooling degree days 128  
Year to date cooling degree days 258  
Since 1 June cooling degree days 247  
Growing Degree Days 28 (Base 50)    
Moisture  
Dew Point 70 °F    
Average Humidity 75    
Maximum Humidity 93    
Minimum Humidity 56    
Precipitation  
Precipitation T in 0.09 in 0.98 in (1969)
Month to date precipitation 2.45 1.18  
Year to date precipitation 18.55 11.95  
Snow  
Snow 0.00 in 0.00 in 0.00 in ()
Month to date snowfall 0.0 0.0  
Since 1 July snowfall 0.0 0.0  
Snow Depth 0.00 in    
Sea Level Pressure  
Sea Level Pressure 29.86 in    
Wind  
Wind Speed 6 mph (ESE)    
Max Wind Speed 18 mph    
Max Gust Speed 24 mph    
Visibility 10 miles    
Events Rain    
T = Trace of Precipitation, MM = Missing Value Source: NWS Daily Summary

Daily Weather History Graph

Daily Weather History Graph

Search for Another Location

Airport or City:

Astronomy

Jul. 14, 2019 Rise Set
Actual Time 6:09 AM CDT 9:23 PM CDT
Civil Twilight 5:34 AM CDT 9:58 PM CDT
Nautical Twilight 4:48 AM CDT 10:44 PM CDT
Astronomical Twilight 3:52 AM CDT 11:40 PM CDT
Moon 7:48 PM CDT (7/14) 4:12 AM CDT (7/14)
Length of Visible Light 16h 24m
Length of Day
15h 13m
Waxing Gibbous, 95% of the Moon is Illuminated
Jul 14
Waxing Gibbous
Jul 16
Full
Jul 24
Last Quarter
Jul 31
New
Aug 7
First Quarter

Hourly Weather History & Observations

Time (CDT) Temp. Heat Index Dew Point Humidity Pressure Visibility Wind Dir Wind Speed Gust Speed Precip Events Conditions
12:53 AM 72.0 °F - 64.9 °F 78% 29.92 in 10.0 mi ESE 10.4 mph - N/A   Clear
1:53 AM 70.0 °F - 64.9 °F 84% 29.91 in 10.0 mi East 6.9 mph - N/A   Clear
2:53 AM 68.0 °F - 64.9 °F 90% 29.88 in 10.0 mi ESE 6.9 mph - N/A   Clear
3:53 AM 68.0 °F - 64.9 °F 90% 29.89 in 10.0 mi ESE 5.8 mph - N/A   Clear
4:53 AM 68.0 °F - 66.0 °F 93% 29.87 in 10.0 mi ESE 4.6 mph - N/A   Clear
5:53 AM 68.0 °F - 66.0 °F 93% 29.93 in 10.0 mi North - - N/A   Clear
6:00 AM 71.1 °F - 68.0 °F 90% 29.96 in 10.0 mi WNW 3.5 mph 20.7 mph N/A   Partly Cloudy
6:53 AM 71.1 °F - 68.0 °F 90% 29.90 in 10.0 mi North 9.2 mph - N/A   Clear
7:53 AM 73.0 °F - 69.1 °F 87% 29.91 in 10.0 mi ESE 4.6 mph - N/A   Clear
8:53 AM 73.0 °F - 69.1 °F 87% 29.93 in 10.0 mi NNW 11.5 mph - N/A   Scattered Clouds
9:53 AM 72.0 °F - 66.9 °F 84% 29.93 in 10.0 mi SE 8.1 mph - 0.00 in Rain Light Rain
10:53 AM 75.0 °F - 69.1 °F 82% 29.86 in 10.0 mi ESE 9.2 mph - 0.00 in   Clear
11:53 AM 82.0 °F 86.7 °F 72.0 °F 71% 29.84 in 10.0 mi SSE 12.7 mph - N/A   Clear
12:53 PM 84.0 °F 90.2 °F 73.0 °F 69% 29.84 in 10.0 mi SE 8.1 mph - N/A   Clear
1:53 PM 87.1 °F 95.4 °F 73.9 °F 65% 29.86 in 10.0 mi North - - N/A   Clear
2:53 PM 87.1 °F 93.6 °F 72.0 °F 61% 29.85 in 10.0 mi SE 8.1 mph - N/A   Partly Cloudy
3:53 PM 89.1 °F 95.0 °F 71.1 °F 55% 29.85 in 10.0 mi SE 5.8 mph - N/A   Clear
4:53 PM 89.1 °F 95.0 °F 71.1 °F 55% 29.84 in 10.0 mi East 4.6 mph - N/A   Clear
5:53 PM 89.1 °F 96.0 °F 72.0 °F 57% 29.83 in 10.0 mi East 4.6 mph - N/A   Clear
6:53 PM 88.0 °F 95.6 °F 73.0 °F 61% 29.82 in 10.0 mi Calm Calm - N/A   Clear
7:53 PM 84.9 °F 94.1 °F 75.9 °F 74% 29.80 in 10.0 mi East 3.5 mph - N/A   Clear
8:53 PM 81.0 °F 86.2 °F 73.9 °F 79% 29.79 in 10.0 mi Calm Calm - N/A   Clear
9:53 PM 79.0 °F - 73.0 °F 82% 29.78 in 10.0 mi NE 4.6 mph - N/A   Clear
10:53 PM 75.9 °F - 71.1 °F 85% 29.80 in 10.0 mi Calm Calm - N/A   Clear
11:53 PM 75.0 °F - 71.1 °F 87% 29.78 in 10.0 mi Calm Calm - N/A   Clear